Regional Weather Roundup
Issued by NWS

Home | Current Version | Previous Version | Graphics & Text | Print | Product List | Glossary Off
Versions: 1 2 3 4 5 6 7 8 9 10 11 12 13 14 15 16 17 18 19 20 21 22 23 24 25 26 27 28 29 30 31 32 33 34 35 36 37 38 39 40 41 42 43 44 45 46 47 48 49 50

000
ASUS43 KTOP 161308
RWRKS

WEATHER ROUNDUP FOR KANSAS
NATIONAL WEATHER SERVICE GOODLAND KS
800 AM CDT WED AUG 16 2017

NOTE:  "FAIR" INDICATES FEW OR NO CLOUDS BELOW 12,000 FEET WITH NO
SIGNIFICANT WEATHER AND/OR OBSTRUCTIONS TO VISIBILITY.

KSZ001>006-013>018-027>032-041>047-161400-
NORTHWEST KANSAS

CITY           SKY/WX    TMP DP  RH WIND       PRES   REMARKS
GOODLAND       CLOUDY    60  59  96 NW12      29.97R
HAYS           CLOUDY    63  61  93 SE8       29.85F
HILL CITY      CLOUDY    63  62  97 W9        29.89R
RUSSELL        CLOUDY    63  62  97 E9        29.82F
$$

KSZ061>065-074>080-084>089-161400-
SOUTHWEST KANSAS

CITY           SKY/WX    TMP DP  RH WIND       PRES   REMARKS
DODGE CITY     CLOUDY    65  62  90 NE13G20   29.89R
ELKHART          N/A     61  60  97 N12         N/A
GARDEN CITY    CLOUDY    64  60  87 NE14      29.92R
GREAT BEND     CLOUDY    65  62  90 NE7       29.87F
LIBERAL        SUNNY     65  61  87 N16       29.91R
PRATT          CLOUDY    67  63  86 N17       29.87S
$$

KSZ066>073-081>083-090>101-161400-
SOUTHEAST KANSAS

CITY           SKY/WX    TMP DP  RH WIND       PRES   REMARKS
CHANUTE        MOSUNNY   75  72  90 MISG      29.85R
COFFEYVILLE    CLOUDY    75  73  93 S6        29.85R
HUTCHINSON     CLOUDY    67  65  93 VRB6      29.87R
MEDICINE LODGE   N/A     72  70  93 S3        29.85R
NEWTON         TSTM      64  63  94 N12       29.90R FOG
PARSONS        PTSUNNY   76  72  87 VRB5      29.86R
WICHITA INTL   CLOUDY    74  72  93 S6        29.85R
WICHITA JABRA  CLOUDY    74  72  93 S9        29.85R
WICHITA MCCONL CLOUDY    74  71  90 SW7       29.85R
WINFIELD       SUNNY     75  72  90 S8        29.85R
$$

KSZ007>012-019>026-033>040-048>060-102>105-161400-
NORTHEAST KANSAS

CITY           SKY/WX    TMP DP  RH WIND       PRES   REMARKS
CONCORDIA      RAIN      64  64 100 E9        29.80F
EMPORIA        CLOUDY    73  71  93 S15       29.84R
LAWRENCE       CLOUDY    71  71 100 E8        29.82F
MANHATTAN      LGT RAIN  66  64  93 NW9       29.85R
MARYSVILLE     LGT RAIN  68  64  88 NW12G20   29.84R
OLATHE IND     CLOUDY    73  72  96 S7        29.86R
OLATHE EXE     CLOUDY    72  72 100 S9        29.86R
SALINA         RAIN      67  63  87 NE8       29.84F
TOPEKA BILLARD CLOUDY    75  73  93 S13       29.80S
TOPEKA FORBES  PTSUNNY   75  72  90 S10       29.81F
$$



USA.gov is the U.S. government's official web portal to all federal, state and local government web resources and services.